Date String (YYYY-MM-DD hh:mm:ss) UTC,Instrument flags,Ambient pressure (hPa),Sample flow (lpm),Bypass flow (lpm),Sample temperature (°C),Ambient temperature (°C),ASC tube jacket temperature (°C),LED temperature (°C),Box temperature (°C),Sample RH (%),Span deviation,Mass concentration (μg/m³),Mass concentration (μg/m³),Mass concentration (μg/m³)
DateTimeUTC,F1_M11,P_M11,Q1_M11,Q2_M11,T1_M11,T2_M11,T3_M11,T4_M11,T5_M11,U1_M11,ZSPAN_M11,X0_M11,X2_M11,X1_M11
2021-11-15 00:00:00,,0825.0,5.00,0.00,27.5,26.5,00.0,36.5,29.3,12.8,0000.0,0002.04,0000.70,0000.33
2021-11-15 00:01:00,,0825.1,5.00,0.00,27.5,26.5,00.0,36.5,29.3,12.8,0000.0,0001.58,0000.71,0000.33
2021-11-15 00:02:00,,0825.1,5.01,0.00,27.5,26.5,00.0,36.5,29.3,12.8,0000.0,0001.52,0000.70,0000.33
2021-11-15 00:03:00,,0825.1,5.00,0.00,27.5,26.5,00.0,36.5,29.3,12.7,0000.0,0001.42,0000.65,0000.33
2021-11-15 00:04:00,,0825.1,5.00,0.00,27.5,26.5,00.0,36.5,29.3,12.7,0000.0,0001.38,0000.63,0000.32
2021-11-15 00:05:00,,0825.2,5.00,0.00,27.5,26.5,00.0,36.5,29.3,12.7,0000.0,0001.40,0000.61,0000.32
2021-11-15 00:06:00,,0825.2,5.01,0.00,27.5,26.6,00.0,36.5,29.3,12.8,0000.0,0001.80,0000.63,0000.31
2021-11-15 00:07:00,,0825.2,4.99,0.00,27.5,26.6,00.0,36.5,29.3,12.9,0000.0,0001.74,0000.59,0000.31
2021-11-15 00:08:00,,0825.3,5.00,0.00,27.5,26.6,00.0,36.5,29.3,12.9,0000.0,0001.85,0000.57,0000.30
2021-11-15 00:09:00,,0825.3,5.01,0.00,27.5,26.6,00.0,36.5,29.2,12.9,0000.0,0001.82,0000.56,0000.30
2021-11-15 00:10:00,,0825.3,5.00,0.00,27.5,26.6,00.0,36.5,29.2,12.9,0000.0,0001.72,0000.52,0000.31
2021-11-15 00:11:00,,0825.3,5.00,0.00,27.5,26.6,00.0,36.5,29.3,12.9,0000.0,0001.72,0000.51,0000.30
2021-11-15 00:12:00,,0825.4,4.99,0.00,27.5,26.6,00.0,36.5,29.3,12.9,0000.0,0001.58,0000.50,0000.29
2021-11-15 00:13:00,,0825.3,4.99,0.00,27.5,26.6,00.0,36.5,29.2,12.9,0000.0,0001.61,0000.52,0000.30
2021-11-15 00:14:00,,0825.4,5.01,0.00,27.5,26.6,00.0,36.5,29.2,12.9,0000.0,0001.60,0000.51,0000.30
2021-11-15 00:15:00,,0825.4,5.00,0.00,27.5,26.7,00.0,36.5,29.2,12.9,0000.0,0001.61,0000.50,0000.30
2021-11-15 00:16:00,,0825.4,4.99,0.00,27.5,26.7,00.0,36.5,29.2,12.9,0000.0,0001.65,0000.50,0000.29
2021-11-15 00:17:00,,0825.5,5.00,0.00,27.5,26.7,00.0,36.5,29.3,12.9,0000.0,0001.26,0000.49,0000.29
2021-11-15 00:18:00,,0825.5,5.01,0.00,27.5,26.7,00.0,36.5,29.3,12.9,0000.0,0001.21,0000.47,0000.29
2021-11-15 00:19:00,,0825.5,4.99,0.00,27.5,26.8,00.0,36.5,29.3,12.9,0000.0,0001.48,0000.46,0000.28
2021-11-15 00:20:00,,0825.5,5.01,0.00,27.5,26.8,00.0,36.5,29.3,12.9,0000.0,0001.57,0000.47,0000.28
2021-11-15 00:21:00,,0825.5,5.01,0.00,27.5,26.8,00.0,36.5,29.3,12.9,0000.0,0001.57,0000.48,0000.28
2021-11-15 00:22:00,,0825.5,5.00,0.00,27.6,26.8,00.0,36.5,29.4,12.9,0000.0,0001.51,0000.46,0000.29
2021-11-15 00:23:00,,0825.5,5.00,0.00,27.6,26.8,00.0,36.5,29.4,12.9,0000.0,0001.46,0000.44,0000.28
2021-11-15 00:24:00,,0825.5,5.01,0.00,27.6,26.8,00.0,36.6,29.4,12.9,0000.0,0001.42,0000.43,0000.28
2021-11-15 00:25:00,,0825.5,4.99,0.00,27.6,26.9,00.0,36.6,29.4,12.9,0000.0,0001.45,0000.44,0000.28
2021-11-15 00:26:00,,0825.5,5.00,0.00,27.6,26.9,00.0,36.6,29.5,12.9,0000.0,0001.38,0000.43,0000.27
2021-11-15 00:27:00,,0825.6,4.99,0.00,27.6,26.9,00.0,36.6,29.5,12.9,0000.0,0001.25,0000.41,0000.27
2021-11-15 00:28:00,,0825.6,5.00,0.00,27.6,26.9,00.0,36.6,29.5,12.9,0000.0,0001.24,0000.41,0000.28
2021-11-15 00:29:00,,0825.5,5.01,0.00,27.6,26.9,00.0,36.6,29.5,12.9,0000.0,0001.24,0000.41,0000.27
2021-11-15 00:30:00,,0825.6,5.00,0.00,27.7,26.9,00.0,36.6,29.5,13.0,0000.0,0001.10,0000.40,0000.27
2021-11-15 00:31:00,,0825.5,4.99,0.00,27.7,26.9,00.0,36.6,29.5,13.0,0000.0,0001.87,0000.41,0000.27
2021-11-15 00:32:00,,0825.6,5.01,0.00,27.7,26.9,00.0,36.6,29.5,13.0,0000.0,0001.86,0000.39,0000.26
2021-11-15 00:33:00,,0825.6,5.00,0.00,27.7,26.9,00.0,36.6,29.4,13.0,0000.0,0001.87,0000.39,0000.25
2021-11-15 00:34:00,,0825.6,4.99,0.00,27.7,26.9,00.0,36.6,29.4,13.1,0000.0,0001.90,0000.41,0000.25
2021-11-15 00:35:00,,0825.7,5.00,0.00,27.7,26.9,00.0,36.6,29.4,13.1,0000.0,0001.86,0000.39,0000.24
2021-11-15 00:36:00,,0825.7,5.01,0.00,27.7,27.0,00.0,36.6,29.5,13.1,0000.0,0002.55,0000.38,0000.23
2021-11-15 00:37:00,,0825.7,5.02,0.00,27.7,27.0,00.0,36.7,29.5,13.1,0000.0,0002.88,0000.39,0000.23
2021-11-15 00:38:00,,0826.0,4.99,0.00,27.7,27.0,00.0,36.7,29.5,13.2,0000.0,0002.91,0000.40,0000.24
2021-11-15 00:39:00,,0826.1,5.00,0.00,27.7,26.9,00.0,36.7,29.5,13.2,0000.0,0002.92,0000.40,0000.24
2021-11-15 00:40:00,,0825.8,5.00,0.00,27.7,26.9,00.0,36.7,29.5,13.2,0000.0,0003.27,0000.41,0000.24
2021-11-15 00:41:00,,0825.7,5.00,0.00,27.7,27.0,00.0,36.7,29.5,13.2,0000.0,0002.97,0000.43,0000.24
2021-11-15 00:42:00,,0825.9,5.00,0.00,27.7,27.0,00.0,36.7,29.4,13.3,0000.0,0002.19,0000.43,0000.24
2021-11-15 00:43:00,,0825.8,5.00,0.00,27.7,26.9,00.0,36.7,29.5,13.3,0000.0,0002.26,0000.44,0000.24
2021-11-15 00:44:00,,0825.9,5.01,0.00,27.8,27.0,00.0,36.7,29.5,13.3,0000.0,0002.32,0000.45,0000.25
2021-11-15 00:45:00,,0825.6,5.00,0.00,27.8,26.9,00.0,36.7,29.5,13.3,0000.0,0002.42,0000.47,0000.25
2021-11-15 00:46:00,,0825.5,4.99,0.00,27.8,26.9,00.0,36.7,29.6,13.3,0000.0,0002.55,0000.49,0000.26
2021-11-15 00:47:00,,0825.6,5.00,0.00,27.8,26.9,00.0,36.7,29.6,13.4,0000.0,0001.98,0000.54,0000.27
2021-11-15 00:48:00,,0825.6,5.00,0.00,27.8,26.9,00.0,36.7,29.6,13.4,0000.0,0001.82,0000.59,0000.28
2021-11-15 00:49:00,,0825.6,5.00,0.00,27.8,26.9,00.0,36.7,29.6,13.5,0000.0,0001.95,0000.60,0000.28
2021-11-15 00:50:00,,0825.5,5.00,0.00,27.8,26.8,00.0,36.8,29.6,13.5,0000.0,0001.95,0000.61,0000.28
2021-11-15 00:51:00,,0825.5,5.00,0.00,27.8,26.8,00.0,36.7,29.6,13.6,0000.0,0001.91,0000.64,0000.28
2021-11-15 00:52:00,,0825.5,5.00,0.00,27.7,26.8,00.0,36.8,29.6,13.6,0000.0,0002.51,0000.71,0000.30
2021-11-15 00:53:00,,0825.5,4.99,0.00,27.7,26.8,00.0,36.7,29.6,13.6,0000.0,0002.74,0000.76,0000.31
2021-11-15 00:54:00,,0825.5,5.00,0.00,27.7,26.7,00.0,36.7,29.6,13.6,0000.0,0003.12,0000.80,0000.31
2021-11-15 00:55:00,,0825.5,5.00,0.00,27.7,26.7,00.0,36.7,29.6,13.7,0000.0,0003.30,0000.84,0000.31
2021-11-15 00:56:00,,0825.4,5.02,0.00,27.7,26.7,00.0,36.7,29.6,13.7,0000.0,0003.32,0000.86,0000.32
2021-11-15 00:57:00,,0825.4,5.00,0.00,27.7,26.7,00.0,36.7,29.6,13.7,0000.0,0003.36,0000.89,0000.33
2021-11-15 00:58:00,,0825.4,4.99,0.00,27.7,26.7,00.0,36.7,29.5,13.7,0000.0,0004.68,0000.89,0000.33
2021-11-15 00:59:00,,0825.4,5.00,0.00,27.7,26.7,00.0,36.7,29.5,13.7,0000.0,0004.69,0000.87,0000.33
